Location: Albuquerque Trailhead
(34.7934°N, 106.3736°W)
Time: 14:34:52
(UTC+00:00)

Cosmos 1605 Rocket - Pass Details

Date: 20 June 2021
Orbit: 945 x 1006 km, 82.9° (Epoch: 26 July)

Event Time Altitude Azimuth Distance (km) Brightness Sun altitude
Rises 03:02:38 0° 358° (N) 3,737 7.6 -7.9°
Reaches altitude 10° 03:05:15 10° 2° (N) 2,780 6.9 -8.3°
Maximum altitude 03:11:32 58° 81° (E) 1,153 4.2 -9.3°
Drops below altitude 10° 03:17:42 10° 160° (SSE) 2,734 5.8 -10.3°
Enters shadow 03:18:23 - 161° (SSE) 2,986 6.0 -10.5°
